,,Stat6,,Stat2,,Stat8,,Stat9,,Stat10,,Wind1,,Wind1,
time,status,PA1M_AVG,status,PR1M_SUM,status,RH1M_AVG,status,SR1M_AVG,status,TA1M_AVG,status,W1dAve1m,status,W1sAve1m,
2003-11-19, 00:00:00,VALID,919.357,VALID,0,VALID,99.7625,VALID,-0.0679233,VALID,18.662,VALID,13,VALID,1.24909,
2003-11-19, 00:01:00,VALID,919.362,VALID,0,VALID,99.7536,VALID,-0.0509425,VALID,18.665,VALID,13,VALID,1.36058,
2003-11-19, 00:02:00,VALID,919.35,VALID,0,VALID,99.7587,VALID,-0.0339617,VALID,18.6585,VALID,6,VALID,1.10574,
2003-11-19, 00:03:00,VALID,919.331,VALID,0,VALID,99.7701,VALID,-0.0509425,VALID,18.6387,VALID,4,VALID,1.33232,
2003-11-19, 00:04:00,VALID,919.324,VALID,0,VALID,99.7904,VALID,-0.0849042,VALID,18.6489,VALID,5,VALID,1.00114,
2003-11-19, 00:05:00,VALID,919.302,VALID,0,VALID,99.7943,VALID,-0.0339617,VALID,18.6419,VALID,12,VALID,1.24343,
2003-11-19, 00:06:00,VALID,919.291,VALID,0,VALID,99.7866,VALID,-0.0509425,VALID,18.6424,VALID,348,VALID,1.22222,
2003-11-19, 00:07:00,VALID,919.274,VALID,0,VALID,99.7803,VALID,-0.0849042,VALID,18.6461,VALID,1,VALID,1.49705,
2003-11-19, 00:08:00,VALID,919.266,VALID,0,VALID,99.8044,VALID,-0.0509425,VALID,18.6459,VALID,14,VALID,1.10866,
2003-11-19, 00:09:00,VALID,919.263,VALID,0,VALID,99.7828,VALID,-0.0679233,VALID,18.6419,VALID,347,VALID,0.905185,
2003-11-19, 00:10:00,VALID,919.233,VALID,0,VALID,99.7497,VALID,-0.0679233,VALID,18.6325,VALID,359,VALID,1.14444,
2003-11-19, 00:11:00,VALID,919.197,VALID,0,VALID,99.7523,VALID,-0.0509425,VALID,18.6454,VALID,7,VALID,1.5891,
2003-11-19, 00:12:00,VALID,919.183,VALID,0,VALID,99.7383,VALID,-0.0339617,VALID,18.6516,VALID,17,VALID,1.27915,
2003-11-19, 00:13:00,VALID,919.155,VALID,0,VALID,99.7294,VALID,-0.0679233,VALID,18.665,VALID,13,VALID,1.23268,
2003-11-19, 00:14:00,VALID,919.162,VALID,0,VALID,99.6824,VALID,-0.0339617,VALID,18.6556,VALID,13,VALID,1.10938,
2003-11-19, 00:15:00,VALID,919.16,VALID,0,VALID,99.6862,VALID,-0.0679233,VALID,18.6454,VALID,5,VALID,0.866235,
2003-11-19, 00:16:00,VALID,919.149,VALID,0,VALID,99.723,VALID,-0.0849042,VALID,18.6558,VALID,14,VALID,1.06566,
2003-11-19, 00:17:00,VALID,919.142,VALID,0,VALID,99.7218,VALID,-0.0849042,VALID,18.6459,VALID,357,VALID,1.25091,
2003-11-19, 00:18:00,VALID,919.151,VALID,0,VALID,99.7421,VALID,-0.101885,VALID,18.6456,VALID,16,VALID,1.11788,
2003-11-19, 00:19:00,VALID,919.142,VALID,0,VALID,99.7472,VALID,-0.0679233,VALID,18.6558,VALID,343,VALID,0.630944,
2003-11-19, 00:20:00,VALID,919.133,VALID,0,VALID,99.765,VALID,-0.0679233,VALID,18.6454,VALID,358,VALID,0.870536,
2003-11-19, 00:21:00,VALID,919.12,VALID,0,VALID,99.7701,VALID,-0.0679233,VALID,18.6491,VALID,354,VALID,0.833651,
2003-11-19, 00:22:00,VALID,919.122,VALID,0,VALID,99.7561,VALID,-0.0849042,VALID,18.6362,VALID,10,VALID,1.00497,
2003-11-19, 00:23:00,VALID,919.091,VALID,0,VALID,99.7892,VALID,-0.0509425,VALID,18.6295,VALID,20,VALID,0.951853,
2003-11-19, 00:24:00,VALID,919.079,VALID,0,VALID,99.7904,VALID,-0.0339617,VALID,18.6459,VALID,8,VALID,0.886161,
2003-11-19, 00:25:00,VALID,919.062,VALID,0,VALID,99.8095,VALID,-0.0509425,VALID,18.6424,VALID,15,VALID,0.906428,
2003-11-19, 00:26:00,VALID,919.06,VALID,0,VALID,99.7777,VALID,-0.101885,VALID,18.6456,VALID,8,VALID,0.323661,
2003-11-19, 00:27:00,VALID,919.05,VALID,0,VALID,99.7904,VALID,-0.0849042,VALID,18.6357,VALID,8,VALID,0.411577,
2003-11-19, 00:28:00,VALID,919.018,VALID,0,VALID,99.7993,VALID,-0.0679233,VALID,18.6558,VALID,9,VALID,0.697917,
2003-11-19, 00:29:00,VALID,918.996,VALID,0,VALID,99.8388,VALID,-0.101885,VALID,18.6655,VALID,8,VALID,0.483994,
2003-11-19, 00:30:00,VALID,918.965,VALID,0,VALID,99.8426,VALID,-0.0849042,VALID,18.6717,VALID,17,VALID,0.5359,
2003-11-19, 00:31:00,VALID,918.943,VALID,0,VALID,99.8197,VALID,-0.0849042,VALID,18.6618,VALID,26,VALID,0.401634,
2003-11-19, 00:32:00,VALID,918.932,VALID,0,VALID,99.8362,VALID,-0.0849042,VALID,18.6585,VALID,311,VALID,0.422061,
2003-11-19, 00:33:00,VALID,918.914,VALID,0,VALID,99.8108,VALID,-0.101885,VALID,18.662,VALID,283,VALID,0.252418,
2003-11-19, 00:34:00,VALID,918.901,VALID,0,VALID,99.737,VALID,-0.0509425,VALID,18.6523,VALID,286,VALID,0.332127,
2003-11-19, 00:35:00,VALID,918.875,VALID,0,VALID,99.6824,VALID,-0.0509425,VALID,18.6521,VALID,292,VALID,0.0220703,
2003-11-19, 00:36:00,VALID,918.851,VALID,0,VALID,99.6137,VALID,0.0169808,VALID,18.6378,VALID,292,VALID,0,
2003-11-19, 00:37:00,VALID,918.845,VALID,0,VALID,99.5794,VALID,0.0169808,VALID,18.6509,VALID,292,VALID,0,
2003-11-19, 00:38:00,VALID,918.837,VALID,0,VALID,99.5285,VALID,0.0339617,VALID,18.6509,VALID,292,VALID,0,
2003-11-19, 00:39:00,VALID,918.81,VALID,0,VALID,99.5298,VALID,0.0509425,VALID,18.6569,VALID,292,VALID,0,
2003-11-19, 00:40:00,VALID,918.815,VALID,0,VALID,99.5527,VALID,0.0339617,VALID,18.6638,VALID,292,VALID,0,
2003-11-19, 00:41:00,VALID,918.812,VALID,0,VALID,99.5755,VALID,0.0339617,VALID,18.68,VALID,292,VALID,0.0925071,
2003-11-19, 00:42:00,VALID,918.822,VALID,0,VALID,99.5018,VALID,0,VALID,18.6574,VALID,292,VALID,0.0651042,
2003-11-19, 00:43:00,VALID,918.818,VALID,0,VALID,99.5565,VALID,0,VALID,18.6606,VALID,357,VALID,0.369186,
2003-11-19, 00:44:00,VALID,918.801,VALID,0,VALID,99.5844,VALID,0,VALID,18.6574,VALID,3,VALID,0.303052,
2003-11-19, 00:45:00,VALID,918.803,VALID,0,VALID,99.6175,VALID,0,VALID,18.6673,VALID,3,VALID,0.10883,
2003-11-19, 00:46:00,VALID,918.795,VALID,0,VALID,99.6175,VALID,0,VALID,18.6537,VALID,3,VALID,0.0556891,
2003-11-19, 00:47:00,VALID,918.786,VALID,0,VALID,99.6735,VALID,0,VALID,18.6509,VALID,3,VALID,0.188939,
2003-11-19, 00:48:00,VALID,918.781,VALID,0,VALID,99.6696,VALID,0,VALID,18.6539,VALID,3,VALID,0.129514,
2003-11-19, 00:49:00,VALID,918.774,VALID,0,VALID,99.7103,VALID,0,VALID,18.6638,VALID,3,VALID,0.113009,
2003-11-19, 00:50:00,VALID,918.764,VALID,0,VALID,99.7154,VALID,0,VALID,18.6645,VALID,22,VALID,0.530297,
2003-11-19, 00:51:00,VALID,918.76,VALID,0,VALID,99.6925,VALID,0.0169808,VALID,18.6412,VALID,35,VALID,0.291424,
2003-11-19, 00:52:00,VALID,918.769,VALID,0,VALID,99.6289,VALID,0,VALID,18.6249,VALID,350,VALID,0.30923,
2003-11-19, 00:53:00,VALID,918.756,VALID,0,VALID,99.6455,VALID,0.0169808,VALID,18.6186,VALID,341,VALID,0.649503,
2003-11-19, 00:54:00,VALID,918.761,VALID,0,VALID,99.6022,VALID,0.0169808,VALID,18.6216,VALID,354,VALID,0.703125,
2003-11-19, 00:55:00,VALID,918.763,VALID,0,VALID,99.5908,VALID,-0.0169808,VALID,18.6419,VALID,358,VALID,0.461338,
2003-11-19, 00:56:00,VALID,918.762,VALID,0,VALID,99.5476,VALID,0.0169808,VALID,18.6283,VALID,342,VALID,0.230183,
2003-11-19, 00:57:00,VALID,918.768,VALID,0,VALID,99.5005,VALID,0,VALID,18.6216,VALID,334,VALID,0.245393,
2003-11-19, 00:58:00,VALID,918.757,VALID,0,VALID,99.4764,VALID,0.0169808,VALID,18.6382,VALID,333,VALID,0.0203887,
2003-11-19, 00:59:00,VALID,918.756,VALID,0,VALID,99.4662,VALID,0,VALID,18.6412,VALID,333,VALID,0.168857,
2003-11-19, 01:00:00,VALID,918.767,VALID,0,VALID,99.4229,VALID,0,VALID,18.6249,VALID,327,VALID,0.244851,
2003-11-19, 01:01:00,VALID,918.752,VALID,0,VALID,99.4102,VALID,0.0509425,VALID,18.6283,VALID,324,VALID,0.015811,
2003-11-19, 01:02:00,VALID,918.759,VALID,0,VALID,99.4102,VALID,0.0509425,VALID,18.6221,VALID,324,VALID,0,
2003-11-19, 01:03:00,VALID,918.756,VALID,0,VALID,99.4446,VALID,0.0339617,VALID,18.6085,VALID,324,VALID,0,
2003-11-19, 01:04:00,VALID,918.756,VALID,0,VALID,99.4458,VALID,0.0169808,VALID,18.6122,VALID,324,VALID,0,
2003-11-19, 01:05:00,VALID,918.744,VALID,0,VALID,99.4636,VALID,0.0169808,VALID,18.6025,VALID,324,VALID,0.0760789,
2003-11-19, 01:06:00,VALID,918.732,VALID,0,VALID,99.5196,VALID,0.0169808,VALID,18.5859,VALID,324,VALID,0.212798,
2003-11-19, 01:07:00,VALID,918.724,VALID,0,VALID,99.5425,VALID,0,VALID,18.5995,VALID,324,VALID,0.104469,
2003-11-19, 01:08:00,VALID,918.701,VALID,0,VALID,99.5883,VALID,0,VALID,18.5997,VALID,324,VALID,0.245236,
2003-11-19, 01:09:00,VALID,918.698,VALID,0,VALID,99.6582,VALID,0.0169808,VALID,18.6022,VALID,339,VALID,0.296512,
2003-11-19, 01:10:00,VALID,918.686,VALID,0,VALID,99.69,VALID,0.0339617,VALID,18.596,VALID,348,VALID,0.0365189,
2003-11-19, 01:11:00,VALID,918.693,VALID,0,VALID,99.737,VALID,0.0339617,VALID,18.6027,VALID,348,VALID,0.00571646,
2003-11-19, 01:12:00,VALID,918.693,VALID,0,VALID,99.7345,VALID,0.0169808,VALID,18.5799,VALID,348,VALID,0.0355283,
2003-11-19, 01:13:00,VALID,918.686,VALID,0,VALID,99.7688,VALID,0.0169808,VALID,18.5903,VALID,347,VALID,0.208757,
2003-11-19, 01:14:00,VALID,918.688,VALID,0,VALID,99.7866,VALID,0.0339617,VALID,18.5965,VALID,347,VALID,0.122266,
2003-11-19, 01:15:00,VALID,918.688,VALID,0,VALID,99.8311,VALID,0.0169808,VALID,18.5926,VALID,347,VALID,0,
2003-11-19, 01:16:00,VALID,918.679,VALID,0,VALID,99.8489,VALID,0,VALID,18.5898,VALID,347,VALID,0.00958807,
2003-11-19, 01:17:00,VALID,918.673,VALID,0,VALID,99.8362,VALID,0,VALID,18.5764,VALID,347,VALID,0,
2003-11-19, 01:18:00,VALID,918.673,VALID,0,VALID,99.84,VALID,0,VALID,18.5737,VALID,347,VALID,0,
2003-11-19, 01:19:00,VALID,918.667,VALID,0,VALID,99.8642,VALID,0.0339617,VALID,18.59,VALID,347,VALID,0,
2003-11-19, 01:20:00,VALID,918.663,VALID,0,VALID,99.8845,VALID,0.0169808,VALID,18.5831,VALID,347,VALID,0,
2003-11-19, 01:21:00,VALID,918.666,VALID,0,VALID,99.9125,VALID,0.0169808,VALID,18.59,VALID,347,VALID,0,
2003-11-19, 01:22:00,VALID,918.662,VALID,0,VALID,99.957,VALID,0.0169808,VALID,18.603,VALID,347,VALID,0,
2003-11-19, 01:23:00,VALID,918.659,VALID,0.2,VALID,99.9405,VALID,0,VALID,18.5997,VALID,347,VALID,0.106517,
2003-11-19, 01:24:00,VALID,918.642,VALID,0,VALID,99.8896,VALID,0,VALID,18.5868,VALID,347,VALID,0.141741,
2003-11-19, 01:25:00,VALID,918.642,VALID,0,VALID,99.8795,VALID,0,VALID,18.5674,VALID,347,VALID,0.00181686,
2003-11-19, 01:26:00,VALID,918.642,VALID,0,VALID,99.9163,VALID,0,VALID,18.5709,VALID,347,VALID,0,
2003-11-19, 01:27:00,VALID,918.65,VALID,0,VALID,99.9151,VALID,0,VALID,18.5612,VALID,347,VALID,0.00106534,
2003-11-19, 01:28:00,VALID,918.65,VALID,0,VALID,99.9341,VALID,0,VALID,18.5545,VALID,347,VALID,0,
2003-11-19, 01:29:00,VALID,918.658,VALID,0,VALID,99.9672,VALID,0.0169808,VALID,18.5605,VALID,347,VALID,0,
2003-11-19, 01:30:00,VALID,918.651,VALID,0,VALID,99.9659,VALID,0.0169808,VALID,18.5541,VALID,347,VALID,0,
2003-11-19, 01:31:00,VALID,918.656,VALID,0,VALID,99.9819,VALID,0.0339617,VALID,18.5637,VALID,347,VALID,0,
2003-11-19, 01:32:00,VALID,918.656,VALID,0,VALID,99.9898,VALID,0,VALID,18.5607,VALID,347,VALID,0,
2003-11-19, 01:33:00,VALID,918.664,VALID,0,VALID,100,VALID,0.0169808,VALID,18.5704,VALID,347,VALID,0,
2003-11-19, 01:34:00,VALID,918.672,VALID,0,VALID,100,VALID,0,VALID,18.567,VALID,347,VALID,0,
2003-11-19, 01:35:00,VALID,918.678,VALID,0,VALID,100,VALID,0.0169808,VALID,18.5633,VALID,351,VALID,0.249047,
2003-11-19, 01:36:00,VALID,918.671,VALID,0,VALID,100,VALID,-0.0679233,VALID,18.5803,VALID,1,VALID,0.482922,
2003-11-19, 01:37:00,VALID,918.67,VALID,0,VALID,100,VALID,-0.0169808,VALID,18.5674,VALID,17,VALID,1.25972,
2003-11-19, 01:38:00,VALID,918.669,VALID,0,VALID,99.9919,VALID,-0.0169808,VALID,18.5637,VALID,19,VALID,1.23917,
2003-11-19, 01:39:00,VALID,918.667,VALID,0,VALID,99.9494,VALID,0,VALID,18.5707,VALID,22,VALID,1.20065,
2003-11-19, 01:40:00,VALID,918.66,VALID,0,VALID,99.9125,VALID,0,VALID,18.5801,VALID,18,VALID,0.907965,
2003-11-19, 01:41:00,VALID,918.677,VALID,0,VALID,99.8693,VALID,0,VALID,18.5796,VALID,9,VALID,0.666424,
2003-11-19, 01:42:00,VALID,918.688,VALID,0,VALID,99.821,VALID,-0.0509425,VALID,18.59,VALID,4,VALID,0.643924,
2003-11-19, 01:43:00,VALID,918.689,VALID,0,VALID,99.7752,VALID,-0.0339617,VALID,18.5873,VALID,329,VALID,0.532366,
2003-11-19, 01:44:00,VALID,918.714,VALID,0,VALID,99.737,VALID,-0.0509425,VALID,18.5774,VALID,311,VALID,0.571671,
2003-11-19, 01:45:00,VALID,918.696,VALID,0,VALID,99.7116,VALID,-0.0169808,VALID,18.5838,VALID,321,VALID,0.248001,
2003-11-19, 01:46:00,VALID,918.685,VALID,0,VALID,99.7243,VALID,-0.0339617,VALID,18.5769,VALID,6,VALID,0.898983,
2003-11-19, 01:47:00,VALID,918.696,VALID,0,VALID,99.6887,VALID,-0.0849042,VALID,18.5965,VALID,10,VALID,0.911222,
2003-11-19, 01:48:00,VALID,918.696,VALID,0,VALID,99.6709,VALID,-0.0509425,VALID,18.6057,VALID,347,VALID,0.984201,
2003-11-19, 01:49:00,VALID,918.691,VALID,0,VALID,99.6569,VALID,0,VALID,18.6122,VALID,242,VALID,0.830035,
2003-11-19, 01:50:00,VALID,918.693,VALID,0,VALID,99.6569,VALID,-0.0169808,VALID,18.6096,VALID,237,VALID,0.371366,
2003-11-19, 01:51:00,VALID,918.668,VALID,0,VALID,99.7154,VALID,-0.0169808,VALID,18.6064,VALID,237,VALID,0.120046,
2003-11-19, 01:52:00,VALID,918.641,VALID,0,VALID,99.7828,VALID,-0.0679233,VALID,18.5995,VALID,238,VALID,0.11942,
2003-11-19, 01:53:00,VALID,918.678,VALID,0,VALID,99.8451,VALID,-0.0679233,VALID,18.6094,VALID,271,VALID,0.181504,
2003-11-19, 01:54:00,VALID,918.658,VALID,0,VALID,99.8706,VALID,-0.0339617,VALID,18.5868,VALID,291,VALID,0.0828488,
2003-11-19, 01:55:00,VALID,918.654,VALID,0,VALID,99.8718,VALID,-0.0169808,VALID,18.5672,VALID,291,VALID,0.210366,
2003-11-19, 01:56:00,VALID,918.668,VALID,0,VALID,99.9011,VALID,-0.0339617,VALID,18.5739,VALID,291,VALID,0.199041,
2003-11-19, 01:57:00,VALID,918.66,VALID,0,VALID,99.9392,VALID,-0.0339617,VALID,18.558,VALID,294,VALID,0.324128,
2003-11-19, 01:58:00,VALID,918.644,VALID,0,VALID,99.9494,VALID,-0.0169808,VALID,18.5513,VALID,331,VALID,0.195494,
2003-11-19, 01:59:00,VALID,918.634,VALID,0,VALID,99.9723,VALID,-0.0509425,VALID,18.5513,VALID,22,VALID,0.586124,
2003-11-19, 02:00:00,VALID,918.63,VALID,0,VALID,99.9733,VALID,-0.0169808,VALID,18.5545,VALID,23,VALID,0.586648,
2003-11-19, 02:01:00,VALID,918.641,VALID,0,VALID,99.9735,VALID,-0.0339617,VALID,18.5545,VALID,16,VALID,0.485677,
2003-11-19, 02:02:00,VALID,918.641,VALID,0,VALID,99.943,VALID,-0.0339617,VALID,18.5446,VALID,329,VALID,0.46804,
2003-11-19, 02:03:00,VALID,918.628,VALID,0,VALID,99.929,VALID,-0.0509425,VALID,18.5513,VALID,345,VALID,0.653819,
2003-11-19, 02:04:00,VALID,918.618,VALID,0,VALID,99.924,VALID,0,VALID,18.5739,VALID,337,VALID,0.104048,
2003-11-19, 02:05:00,VALID,918.602,VALID,0,VALID,99.9252,VALID,-0.0339617,VALID,18.5833,VALID,337,VALID,0.0234375,
2003-11-19, 02:06:00,VALID,918.589,VALID,0,VALID,99.9062,VALID,-0.0169808,VALID,18.5896,VALID,338,VALID,0.0984738,
2003-11-19, 02:07:00,VALID,918.585,VALID,0,VALID,99.8934,VALID,-0.0169808,VALID,18.6096,VALID,338,VALID,0.0256696,
2003-11-19, 02:08:00,VALID,918.585,VALID,0,VALID,99.8629,VALID,-0.0509425,VALID,18.6126,VALID,338,VALID,0.168527,
2003-11-19, 02:09:00,VALID,918.563,VALID,0,VALID,99.8426,VALID,-0.0849042,VALID,18.6126,VALID,355,VALID,0.370276,
2003-11-19, 02:10:00,VALID,918.553,VALID,0,VALID,99.8133,VALID,-0.0679233,VALID,18.6099,VALID,7,VALID,0.668241,
2003-11-19, 02:11:00,VALID,918.578,VALID,0,VALID,99.7777,VALID,-0.0169808,VALID,18.593,VALID,346,VALID,0.945694,
2003-11-19, 02:12:00,VALID,918.57,VALID,0,VALID,99.6976,VALID,-0.0339617,VALID,18.5833,VALID,353,VALID,1.12754,
2003-11-19, 02:13:00,VALID,918.564,VALID,0.2,VALID,99.6658,VALID,-0.0679233,VALID,18.587,VALID,1,VALID,1.246,
2003-11-19, 02:14:00,VALID,918.558,VALID,0,VALID,99.5997,VALID,-0.0169808,VALID,18.5803,VALID,11,VALID,1.19931,
2003-11-19, 02:15:00,VALID,918.552,VALID,0,VALID,99.5743,VALID,-0.0169808,VALID,18.5967,VALID,11,VALID,1.30115,
2003-11-19, 02:16:00,VALID,918.529,VALID,0,VALID,99.5221,VALID,-0.0339617,VALID,18.5967,VALID,7,VALID,1.36662,
2003-11-19, 02:17:00,VALID,918.501,VALID,0,VALID,99.414,VALID,-0.0169808,VALID,18.5873,VALID,8,VALID,2.05564,
2003-11-19, 02:18:00,VALID,918.49,VALID,0,VALID,99.2932,VALID,-0.0509425,VALID,18.5704,VALID,10,VALID,1.04794,
2003-11-19, 02:19:00,VALID,918.495,VALID,0,VALID,99.1941,VALID,-0.0339617,VALID,18.597,VALID,10,VALID,0.475632,
2003-11-19, 02:20:00,VALID,918.486,VALID,0,VALID,99.1661,VALID,-0.0169808,VALID,18.59,VALID,11,VALID,0.397852,
2003-11-19, 02:21:00,VALID,918.474,VALID,0,VALID,99.1432,VALID,-0.0339617,VALID,18.5997,VALID,356,VALID,0.340625,
2003-11-19, 02:22:00,VALID,918.479,VALID,0,VALID,99.1457,VALID,0,VALID,18.6062,VALID,16,VALID,1.01079,
2003-11-19, 02:23:00,VALID,918.464,VALID,0,VALID,99.1712,VALID,-0.0509425,VALID,18.6002,VALID,10,VALID,1.18514,
2003-11-19, 02:24:00,VALID,918.485,VALID,0,VALID,99.1419,VALID,-0.101885,VALID,18.594,VALID,13,VALID,0.888139,
2003-11-19, 02:25:00,VALID,918.483,VALID,0,VALID,99.1801,VALID,-0.0679233,VALID,18.594,VALID,6,VALID,0.304315,
2003-11-19, 02:26:00,VALID,918.495,VALID,0,VALID,99.175,VALID,-0.0509425,VALID,18.5806,VALID,2,VALID,0.712891,
2003-11-19, 02:27:00,VALID,918.505,VALID,0,VALID,99.1674,VALID,-0.0509425,VALID,18.5704,VALID,356,VALID,1.10501,
2003-11-19, 02:28:00,VALID,918.514,VALID,0,VALID,99.1534,VALID,-0.0509425,VALID,18.5577,VALID,11,VALID,1.02398,
2003-11-19, 02:29:00,VALID,918.508,VALID,0,VALID,99.1864,VALID,-0.0339617,VALID,18.5903,VALID,12,VALID,0.631037,
2003-11-19, 02:30:00,VALID,918.496,VALID,0,VALID,99.1635,VALID,-0.0679233,VALID,18.5709,VALID,18,VALID,1.12157,
2003-11-19, 02:31:00,VALID,918.494,VALID,0,VALID,99.1941,VALID,-0.0679233,VALID,18.5737,VALID,15,VALID,0.673147,
2003-11-19, 02:32:00,VALID,918.48,VALID,0,VALID,99.1496,VALID,-0.0679233,VALID,18.5707,VALID,339,VALID,1.24041,
2003-11-19, 02:33:00,VALID,918.477,VALID,0,VALID,99.0148,VALID,-0.0339617,VALID,18.5709,VALID,13,VALID,1.45078,
2003-11-19, 02:34:00,VALID,918.487,VALID,0,VALID,98.8838,VALID,-0.0169808,VALID,18.5836,VALID,355,VALID,1.38352,
2003-11-19, 02:35:00,VALID,918.485,VALID,0,VALID,98.6676,VALID,-0.0169808,VALID,18.5873,VALID,2,VALID,1.22456,
2003-11-19, 02:36:00,VALID,918.488,VALID,0,VALID,98.5595,VALID,-0.0339617,VALID,18.6034,VALID,341,VALID,1.44826,
2003-11-19, 02:37:00,VALID,918.497,VALID,0,VALID,98.4044,VALID,-0.0169808,VALID,18.6,VALID,359,VALID,1.36105,
2003-11-19, 02:38:00,VALID,918.498,VALID,0,VALID,98.2429,VALID,-0.0339617,VALID,18.6062,VALID,10,VALID,1.0367,
2003-11-19, 02:39:00,VALID,918.476,VALID,0,VALID,98.3039,VALID,-0.0509425,VALID,18.6389,VALID,11,VALID,1.38746,
2003-11-19, 02:40:00,VALID,918.483,VALID,0,VALID,98.3548,VALID,-0.0509425,VALID,18.6256,VALID,12,VALID,1.12062,
2003-11-19, 02:41:00,VALID,918.487,VALID,0,VALID,98.4375,VALID,-0.0679233,VALID,18.6092,VALID,6,VALID,1.17912,
2003-11-19, 02:42:00,VALID,918.488,VALID,0,VALID,98.44,VALID,-0.0339617,VALID,18.6037,VALID,12,VALID,1.65718,
2003-11-19, 02:43:00,VALID,918.486,VALID,0,VALID,98.5341,VALID,-0.0509425,VALID,18.5935,VALID,11,VALID,1.2244,
2003-11-19, 02:44:00,VALID,918.467,VALID,0,VALID,98.6651,VALID,0,VALID,18.5734,VALID,7,VALID,1.16927,
2003-11-19, 02:45:00,VALID,918.451,VALID,0,VALID,98.7439,VALID,0,VALID,18.5711,VALID,22,VALID,1.61756,
2003-11-19, 02:46:00,VALID,918.454,VALID,0,VALID,98.8075,VALID,-0.0509425,VALID,18.5582,VALID,10,VALID,1.55451,
2003-11-19, 02:47:00,VALID,918.441,VALID,0,VALID,98.8723,VALID,-0.0849042,VALID,18.5522,VALID,21,VALID,1.90316,
2003-11-19, 02:48:00,VALID,918.439,VALID,0,VALID,98.9461,VALID,-0.0679233,VALID,18.5324,VALID,14,VALID,1.5387,
2003-11-19, 02:49:00,VALID,918.404,VALID,0,VALID,98.9753,VALID,-0.0169808,VALID,18.5225,VALID,17,VALID,2.2982,
2003-11-19, 02:50:00,VALID,918.422,VALID,0,VALID,98.9156,VALID,-0.0169808,VALID,18.5162,VALID,15,VALID,1.75595,
2003-11-19, 02:51:00,VALID,918.407,VALID,0,VALID,98.9321,VALID,-0.0679233,VALID,18.513,VALID,19,VALID,1.92756,
2003-11-19, 02:52:00,VALID,918.366,VALID,0,VALID,98.8418,VALID,-0.0339617,VALID,18.513,VALID,13,VALID,2.80669,
2003-11-19, 02:53:00,VALID,918.373,VALID,0,VALID,98.7643,VALID,-0.0339617,VALID,18.5259,VALID,15,VALID,2.06795,
2003-11-19, 02:54:00,VALID,918.367,VALID,0,VALID,98.6587,VALID,-0.0169808,VALID,18.5326,VALID,359,VALID,1.71494,
2003-11-19, 02:55:00,VALID,918.366,VALID,0,VALID,98.4845,VALID,-0.0339617,VALID,18.519,VALID,349,VALID,1.73326,
2003-11-19, 02:56:00,VALID,918.35,VALID,0,VALID,98.3968,VALID,-0.0339617,VALID,18.5388,VALID,354,VALID,0.948401,
2003-11-19, 02:57:00,VALID,918.342,VALID,0,VALID,98.5201,VALID,-0.0169808,VALID,18.5483,VALID,2,VALID,1.39621,
2003-11-19, 02:58:00,VALID,918.333,VALID,0,VALID,98.4972,VALID,0,VALID,18.5455,VALID,346,VALID,1.88398,
2003-11-19, 02:59:00,VALID,918.341,VALID,0,VALID,98.4731,VALID,-0.0339617,VALID,18.5324,VALID,344,VALID,1.58576,
2003-11-19, 03:00:00,VALID,918.325,VALID,0,VALID,98.4591,VALID,-0.0339617,VALID,18.516,VALID,352,VALID,2.02852,
2003-11-19, 03:01:00,VALID,918.327,VALID,0,VALID,98.4972,VALID,-0.0169808,VALID,18.5218,VALID,1,VALID,2.01217,
2003-11-19, 03:02:00,VALID,918.32,VALID,0,VALID,98.4629,VALID,-0.0169808,VALID,18.5255,VALID,20,VALID,2.47903,
2003-11-19, 03:03:00,VALID,918.343,VALID,0,VALID,98.5176,VALID,-0.0169808,VALID,18.5354,VALID,360,VALID,1.74679,
2003-11-19, 03:04:00,VALID,918.353,VALID,0,VALID,98.5112,VALID,-0.0169808,VALID,18.5356,VALID,2,VALID,1.29253,
2003-11-19, 03:05:00,VALID,918.353,VALID,0,VALID,98.5341,VALID,-0.0339617,VALID,18.5294,VALID,358,VALID,1.35717,
2003-11-19, 03:06:00,VALID,918.331,VALID,0,VALID,98.4616,VALID,-0.0169808,VALID,18.5063,VALID,347,VALID,1.90407,
2003-11-19, 03:07:00,VALID,918.346,VALID,0,VALID,98.5875,VALID,0,VALID,18.5093,VALID,5,VALID,1.78292,
2003-11-19, 03:08:00,VALID,918.352,VALID,0,VALID,98.5061,VALID,-0.0339617,VALID,18.5199,VALID,354,VALID,1.42797,
2003-11-19, 03:09:00,VALID,918.341,VALID,0,VALID,98.5125,VALID,-0.0339617,VALID,18.5229,VALID,355,VALID,1.47443,
2003-11-19, 03:10:00,VALID,918.334,VALID,0,VALID,98.5405,VALID,-0.101885,VALID,18.5098,VALID,353,VALID,1.377,
2003-11-19, 03:11:00,VALID,918.344,VALID,0,VALID,98.5036,VALID,-0.0679233,VALID,18.4936,VALID,333,VALID,1.30469,
2003-11-19, 03:12:00,VALID,918.339,VALID,0,VALID,98.6078,VALID,-0.0339617,VALID,18.4773,VALID,15,VALID,1.18423,
2003-11-19, 03:13:00,VALID,918.328,VALID,0,VALID,98.6829,VALID,-0.0339617,VALID,18.4872,VALID,359,VALID,1.81307,
2003-11-19, 03:14:00,VALID,918.326,VALID,0,VALID,98.6702,VALID,-0.0339617,VALID,18.474,VALID,358,VALID,1.64809,
2003-11-19, 03:15:00,VALID,918.322,VALID,0,VALID,98.7261,VALID,-0.0509425,VALID,18.4807,VALID,20,VALID,1.62227,
2003-11-19, 03:16:00,VALID,918.333,VALID,0,VALID,98.7935,VALID,0,VALID,18.4803,VALID,19,VALID,1.4533,
2003-11-19, 03:17:00,VALID,918.331,VALID,0,VALID,98.777,VALID,-0.0509425,VALID,18.4837,VALID,352,VALID,1.50981,
2003-11-19, 03:18:00,VALID,918.326,VALID,0,VALID,98.6727,VALID,-0.0169808,VALID,18.481,VALID,6,VALID,1.46777,
2003-11-19, 03:19:00,VALID,918.331,VALID,0,VALID,98.7375,VALID,-0.0509425,VALID,18.4777,VALID,5,VALID,1.1449,
2003-11-19, 03:20:00,VALID,918.315,VALID,0.2,VALID,98.7719,VALID,-0.0679233,VALID,18.4678,VALID,11,VALID,1.82227,
2003-11-19, 03:21:00,VALID,918.299,VALID,0,VALID,98.8011,VALID,-0.0169808,VALID,18.4678,VALID,14,VALID,2.51663,
2003-11-19, 03:22:00,VALID,918.332,VALID,0,VALID,98.8189,VALID,-0.0339617,VALID,18.4611,VALID,359,VALID,1.79021,
2003-11-19, 03:23:00,VALID,918.296,VALID,0,VALID,98.8329,VALID,-0.0169808,VALID,18.4484,VALID,20,VALID,2.27435,
2003-11-19, 03:24:00,VALID,918.304,VALID,0,VALID,98.9207,VALID,-0.0849042,VALID,18.4517,VALID,9,VALID,1.95767,
2003-11-19, 03:25:00,VALID,918.303,VALID,0,VALID,98.9308,VALID,-0.0509425,VALID,18.4457,VALID,12,VALID,1.60714,
2003-11-19, 03:26:00,VALID,918.28,VALID,0,VALID,98.9207,VALID,-0.0509425,VALID,18.4491,VALID,13,VALID,2.90552,
2003-11-19, 03:27:00,VALID,918.294,VALID,0,VALID,98.8456,VALID,-0.0509425,VALID,18.4293,VALID,11,VALID,1.95543,
2003-11-19, 03:28:00,VALID,918.315,VALID,0,VALID,98.8342,VALID,-0.0339617,VALID,18.4323,VALID,5,VALID,1.9361,
2003-11-19, 03:29:00,VALID,918.296,VALID,0,VALID,98.7465,VALID,-0.0849042,VALID,18.4228,VALID,358,VALID,2.46094,
2003-11-19, 03:30:00,VALID,918.304,VALID,0,VALID,98.7846,VALID,-0.0849042,VALID,18.4424,VALID,11,VALID,2.15803,
2003-11-19, 03:31:00,VALID,918.297,VALID,0,VALID,98.8215,VALID,-0.0339617,VALID,18.4323,VALID,17,VALID,2.27965,
2003-11-19, 03:32:00,VALID,918.276,VALID,0,VALID,98.7375,VALID,-0.0849042,VALID,18.4194,VALID,4,VALID,2.23698,
2003-11-19, 03:33:00,VALID,918.256,VALID,0,VALID,98.6841,VALID,-0.0169808,VALID,18.4194,VALID,20,VALID,3.45554,
2003-11-19, 03:34:00,VALID,918.261,VALID,0,VALID,98.6562,VALID,-0.0509425,VALID,18.4191,VALID,15,VALID,2.35724,
2003-11-19, 03:35:00,VALID,918.253,VALID,0,VALID,98.6028,VALID,0,VALID,18.4258,VALID,18,VALID,2.23365,